Tracking 17925 objects as of 23-January-2017
HD Live streaming from Space Station
objects crossing your sky now

UNHA 3 R/B

Track UNHA 3 R/B now!
10-day predictions


NORAD ID: 39027
Int'l Code: 2012-072B
Perigee: 488.4 km
Apogee: 571.5 km
Inclination: 97.3 °
Period: 95.1 minutes
Semi major axis: 6900 km
RCS: 1.274 m2 (large)
Launch date: December 12, 2012
Source: North Korea (NKOR)
Launch site: Yunsong, DPRK (YUN)

Note: This is a ROCKET BODY
Your satellite tracking list
Your tracking list is empty





NASA's NSSDC Master Catalog

Two Line Element Set (TLE):
1 39027U 12072B   17022.51666881  .00000879  00000-0  49311-4 0  9992
2 39027  97.2606  34.2224 0060244  23.0546 337.3369 15.14391856226913
Source of the keplerian elements: AFSPC